This is the latest recevied weather packets stored in our database for station/object N5TDX. If no packets are shown the sender has not sent any weather packets the latest 10 day(s).
| Time | Temp. | Humidity | Pressure | Rain* | Wind** | Luminosity | Snow |
|---|---|---|---|---|---|---|---|
| 1788537238 | 30.56° C | 64% | 1012.3 hPa | 0 mm | - | - | - |
| 1788536936 | 30.56° C | 65% | 1012.2 hPa | 0 mm | - | - | - |
| 1788536631 | 31.11° C | 64% | 1012.1 hPa | 0 mm | - | - | - |
| 1788536327 | 31.67° C | 61% | 1012.2 hPa | 0 mm | - | - | - |
| 1788536022 | 30.56° C | 65% | 1012.1 hPa | 0 mm | - | - | - |
| 1788535719 | 30.56° C | 67% | 1012 hPa | 0 mm | - | - | - |
| 1788535418 | 30° C | 68% | 1012 hPa | 0 mm | - | - | - |
| 1788535113 | 29.44° C | 69% | 1012.3 hPa | 0 mm | - | - | - |
| 1788534812 | 29.44° C | 71% | 1012.1 hPa | 0 mm | - | - | - |
| 1788534508 | 28.89° C | 70% | 1011.9 hPa | 0 mm | - | - | - |
| 1788534204 | 28.89° C | 70% | 1012 hPa | 0 mm | - | - | - |
| 1788533901 | 28.89° C | 71% | 1012.1 hPa | 0 mm | - | - | - |
| 1788533598 | 28.89° C | 73% | 1012.2 hPa | 0 mm | - | - | - |
| 1788533293 | 28.89° C | 73% | 1012 hPa | 0 mm | - | - | - |
| 1788532989 | 28.89° C | 75% | 1011.7 hPa | 0 mm | - | - | - |
| 1788532689 | 28.89° C | 75% | 1012.2 hPa | 0 mm | - | - | - |
| 1788532386 | 28.33° C | 75% | 1011.9 hPa | 0 mm | - | - | - |
| 1788532081 | 28.33° C | 75% | 1012.1 hPa | 0 mm | - | - | - |
| 1788531778 | 28.89° C | 76% | 1011.7 hPa | 0 mm | - | - | - |
| 1788531478 | 28.33° C | 77% | 1012.1 hPa | 0 mm | - | - | - |
| 1788531173 | 28.33° C | 78% | 1011.9 hPa | 0 mm | - | - | - |
| 1788530869 | 27.78° C | 80% | 1012.1 hPa | 0 mm | - | - | - |
| 1788530564 | 27.22° C | 81% | 1011.9 hPa | 0 mm | - | - | - |
| 1788530263 | 27.22° C | 82% | 1011.8 hPa | 0 mm | - | - | - |
| 1788529958 | 26.67° C | 83% | 1011.9 hPa | 0 mm | - | - | - |
* Rain latest hour (hover to see other rain measurements)
** Current wind speed in m/s (hover to see current wind gust speed)